SL-14 DEB, 45328

Orbit data source: Space-Track

SL-14 DEB, 45328 is space debris in LEO originally from a launch on Thu, 15 Aug 1991 UTC launched from the Plesetsk Missile And Space Complex (PKMTR). Debris objects in space refer to the collection of defunct objects orbiting the Earth. Examples of debris include non-operational satellites, rocket bodies, and fragments generated from explosions, collisions, or faulty payload assembly.

Loading next visibility...
Identifier
45328, 1991-056BS
Orbit
LEO
Country
Flag of CISCIS
Related business
Manufacturer
Unknown
Mission
Spacecraft
Bus & Motor
Unknown
Mass
Unknown
Launch date (UTC)
1991-08-15 (34 years ago)
Launch vehicle
Unknown
Launch site
Plesetsk Missile And Space Complex (PKMTR)
Object type
Payload
Rocket body
Debris
Shape & HBR
Unknown shape, 0.1 m
Radar Cross Section
Small (<0.1 m²)

Expand to show TLE details & history
Last TLE update: 2 days ago

TLE from 2 days ago
0 SL-14 DEB
1 45328U 91056BS  26036.78574009  .00001435  00000-0  22743-2 0  9993
2 45328  82.5500 160.2303 0115154 142.9504 217.9657 13.46340953291086
Epoch: 2026-02-05T18:51Z
TLE epoch observation values (Epoch: 2026-02-05T18:51:27.943Z)
Latitude
-0.00004°
Longitude
101.43089°
Altitude
1,156.745 km
Speed
7.241 km/s
True Right ascension
10h 40m 55s
True Declination
0° 00' 00"
Sunlit
Object was in full shadow at epoch
Visualization orbit readout
Latitude
Unknown
Longitude
Unknown
Altitude
Unknown
Speed
Unknown
Apparent Right ascension
Unknown
Apparent Declination
Unknown
Sunlit
N/A
Visualization observer readout
Local Sidereal Time
14:57:13
Azimuth
Unknown
Elevation
Unknown
Doppler factor
Unknown
Orbital elements
Apogee altitude
1,168.872 km
Perigee altitude
997.037 km
Semi-major axis
7,461.092 km
Eccentricity
0.01152
Inclination
82.55°
RAAN
160.2303°
Arg. of periapsis
142.9504°
True anomaly
217.16305°
Mean anomaly
217.9657°
Eccentric anomaly
217.56347°
Mean motion
3.36775 °/min
Orbital period
106.9 mins
BSTAR
0.0022743
Loading maneuver chart data...
Computing Atmospheric mass density...
Loading historical data...
Loading historical data...
Loading historical data...
Loading historical data...
Loading historical data...
Loading historical data...
Loading historical data...

Documentation

Showing up to 5 results
|